Terminal Aerodrome Forecast
Issued by NWS

Home | Current Version | Previous Version | Graphics & Text | Print | Product List | Glossary On
Versions: 1 2 3 4 5 6 7 8 9 10 11 12 13 14 15 16 17
000
FTUS43 KBIS 252200 AAA
TAFJMS
TAF AMD
KJMS 252211Z 2522/2618 13014KT 1SM -SN OVC020
     FM260000 10014KT 3/4SM -SN OVC008
     FM260400 04018G26KT 2SM -SN BLSN OVC010
     FM260800 36019KT 4SM -SN BR OVC015
     FM261200 35019KT P6SM OVC015=

USA.gov is the U.S. government's official web portal to all federal, state and local government web resources and services.